Theta_e
354 350 346 346 348 343 350 354 353 354 353 355 353 351 354 353 352 351 349 348 348 348 344 347 341 343 348 349 344 344 344 346 351 351 348 339 351 352 348 346 349 345 347
353 351 351 337 341 349 347 353 354 354 355 354 355 354 353 351 350 349 345 348 349 351 344 348 349 348 347 349 350 342 350 344 349 350 347 355 350 347 348 349 346 348 347
351 349 349 350 349 351 354 355 354 354 356 355 356 354 353 351 350 349 349 344 347 349 345 346 349 350 350 349 351 345 348 349 351 350 347 351 350 347 348 347 347 348 347
349 350 353 350 352 352 355 354 355 356 357 357 356 355 353 352 349 344 345 345 346 346 348 347 348 349 350 348 350 348 351 350 351 345 352 348 344 348 348 346 336 347 345
348 348 348 348 349 349 350 354 356 356 357 357 355 353 352 352 347 346 346 351 351 350 346 348 349 351 349 348 349 349 351 352 350 350 349 345 340 341 345 347 350 347 349
345 348 347 345 350 351 351 354 356 357 357 357 354 351 354 352 350 349 350 349 348 350 352 349 350 350 350 350 350 351 351 350 351 352 351 347 347 347 347 348 346 347 345
347 349 352 351 352 352 352 357 358 359 358 359 358 354 355 356 356 354 352 351 350 351 350 352 352 351 351 352 350 350 354 352 354 354 353 353 351 347 344 337 339 348 345
346 345 347 351 351 352 354 357 361 362 361 358 358 358 355 358 355 353 354 350 348 352 352 349 351 351 352 351 353 351 353 354 353 353 351 351 352 347 348 343 343 348 346
346 347 349 349 350 352 352 352 361 361 361 361 361 360 359 360 356 356 356 355 353 352 353 352 351 352 352 351 354 352 353 351 351 352 352 350 349 347 350 349 349 349 354
347 348 349 349 350 348 351 354 358 360 360 360 360 361 357 358 361 360 357 357 353 354 353 352 352 351 351 351 350 351 352 350 350 352 352 352 353 352 351 349 347 344 346
348 350 350 349 349 349 353 355 356 357 360 361 360 359 357 358 359 360 358 357 357 356 355 355 354 354 352 352 352 350 352 353 351 348 350 348 351 349 346 350 351 350 347
349 350 351 351 353 356 360 357 348 342 340 343 343 349 354 356 355 358 358 356 354 355 353 352 353 353 354 353 351 352 352 351 350 351 352 350 351 352 349 345 346 348 346
352 351 353 362 360 355 348 345 341 339 338 337 340 339 338 339 340 344 343 349 354 354 352 352 352 353 352 351 352 352 351 352 353 352 351 351 350 349 352 351 352 353 354
358 355 362 358 352 346 345 343 343 342 342 341 341 342 340 340 341 342 343 342 341 342 344 349 351 350 350 353 351 351 351 352 352 352 352 352 352 351 353 351 350 349 350
357 361 358 354 348 348 347 345 344 342 343 342 341 342 342 343 344 344 345 345 345 344 343 344 344 344 347 353 353 350 351 353 352 350 350 350 350 349 350 352 352 350 351
359 355 352 350 349 348 346 344 342 341 343 343 342 342 342 342 343 342 341 341 341 342 343 344 345 345 345 342 343 343 350 351 350 350 350 350 350 350 350 351 352 352 352
357 352 351 348 347 346 345 343 342 342 343 342 341 340 340 340 340 340 340 341 341 340 340 341 341 342 344 344 343 341 341 343 343 343 344 352 351 352 353 352 351 349 351
355 351 347 346 345 343 342 341 341 340 340 339 338 339 339 338 338 338 339 339 340 340 340 340 340 341 341 339 339 339 339 340 342 343 342 341 342 347 352 351 350 351 352
350 345 344 345 343 342 341 340 339 338 337 336 338 338 338 337 336 336 336 336 337 337 337 338 339 340 341 341 341 340 339 340 341 342 342 342 342 342 343 349 351 351 351
344 344 344 342 342 340 339 338 336 336 336 337 336 335 332 331 332 331 331 333 331 331 333 333 333 333 334 333 334 338 338 339 339 339 339 340 340 339 338 337 340 345 348
343 342 341 340 341 339 336 336 336 339 335 333 332 331 331 329 329 330 329 329 328 328 330 332 334 332 332 333 334 334 333 336 338 339 338 338 338 337 336 336 337 341 344
342 341 340 339 338 336 334 335 336 333 331 331 330 329 328 328 328 327 328 327 329 331 331 331 331 330 330 331 331 331 332 334 335 335 338 338 337 337 336 335 335 335 338
340 339 338 337 336 335 333 332 333 330 329 329 328 327 326 327 327 327 328 330 331 331 332 332 331 332 331 330 330 331 329 330 331 332 333 334 334 335 335 334 335 335 335
338 336 336 336 336 333 331 331 329 328 326 326 326 326 326 325 326 325 325 325 325 326 327 326 326 327 328 328 325 324 325 325 325 326 327 327 328 330 333 334 338 337 333
335 334 333 332 334 331 330 328 327 325 325 325 325 327 327 326 325 324 324 325 324 322 322 323 323 324 324 318 316 317 318 319 320 321 322 325 328 331 333 335 337 338 338
332 332 332 332 330 330 328 326 326 324 324 326 325 325 324 324 323 323 323 323 322 322 322 322 321 319 316 316 315 315 315 317 318 317 319 323 326 329 332 335 335 336 336
Wind_Speed
12 12 12 9 4 5 8 10 10 10 12 13 11 12 10 11 9 7 4 5 9 16 12 13 11 12 12 14 10 8 11 14 10 4 4 11 7 7 12 6 13 15 19
12 11 15 16 19 21 16 19 19 15 15 13 11 9 9 7 9 9 7 8 13 16 13 11 11 10 14 13 10 6 8 20 14 4 3 1 4 6 13 7 8 12 21
14 15 18 24 21 24 22 18 16 15 15 13 11 9 6 8 9 9 9 12 14 14 17 14 14 12 13 14 13 9 9 17 7 5 5 2 1 6 12 13 22 7 12
16 17 20 19 28 18 14 14 14 14 14 13 12 11 10 9 10 10 10 13 14 15 15 15 18 16 13 16 12 13 12 9 13 7 6 18 11 3 2 6 17 13 13
17 16 15 16 17 18 18 17 16 15 11 12 7 6 9 10 8 10 10 13 13 17 16 18 18 16 16 18 15 14 9 10 9 3 10 9 9 10 3 4 5 14 13
15 12 22 18 18 20 21 20 17 14 11 13 11 11 8 7 9 12 14 15 15 15 16 17 19 19 20 19 16 13 12 10 12 6 7 9 6 14 8 3 4 6 10
16 15 17 18 21 21 21 20 21 16 14 12 10 11 9 10 13 12 15 15 15 15 16 18 17 17 18 18 16 15 11 11 10 10 8 5 8 4 5 8 6 2 9
15 14 12 17 18 13 23 21 21 17 16 12 11 11 10 11 10 10 12 15 15 15 14 15 17 16 16 17 17 16 14 14 14 13 11 11 8 6 19 11 8 2 11
16 16 14 14 11 11 8 7 17 11 11 13 11 9 9 9 5 4 6 10 10 16 15 15 14 16 15 16 18 19 18 18 12 14 14 14 11 14 21 17 14 16 3
16 15 13 15 14 14 15 13 9 8 7 8 9 9 6 5 2 4 5 1 5 8 12 13 13 14 16 17 18 18 20 20 18 16 18 15 15 14 14 13 16 12 12
15 14 12 16 15 15 21 21 9 5 11 13 9 6 3 1 2 4 5 5 6 7 7 10 12 14 16 16 17 19 22 18 20 19 20 16 13 18 20 18 13 11 18
14 15 14 17 10 13 22 23 19 16 13 11 11 7 4 5 3 2 4 6 6 5 9 12 13 15 14 16 19 19 20 21 22 20 21 22 16 18 20 20 23 20 19
13 13 12 13 21 22 22 15 14 13 11 11 10 7 6 6 5 4 5 5 5 5 7 8 12 14 16 17 19 20 23 24 22 22 23 23 22 24 21 18 19 18 17
11 10 14 15 18 17 17 17 13 11 10 10 9 7 7 7 7 4 4 6 7 7 9 7 7 11 13 15 18 18 20 22 23 24 24 23 24 25 25 22 23 26 26
14 9 12 12 17 15 14 14 13 10 8 8 8 9 7 7 6 6 6 7 8 9 10 11 11 11 11 12 13 15 18 17 20 25 27 26 27 29 25 26 26 25 26
14 14 12 14 14 13 11 12 11 9 7 7 8 9 8 8 8 9 10 10 11 11 12 12 13 13 12 9 13 8 10 13 16 20 22 24 28 30 31 31 29 30 27
13 15 13 13 16 14 13 9 10 7 6 6 6 7 7 8 8 8 9 9 10 11 12 13 14 15 15 15 16 15 15 15 17 18 18 19 19 23 26 27 31 33 35
12 13 14 16 16 13 11 9 6 4 3 5 6 6 8 9 10 10 11 11 11 12 13 14 14 15 16 17 19 19 20 18 19 21 22 23 23 22 24 27 27 26 28
13 15 17 17 11 14 10 4 2 3 4 5 7 9 11 12 13 14 15 15 15 16 16 16 16 14 14 14 14 16 19 17 21 22 22 23 24 25 25 23 26 25 28
19 17 18 17 12 8 4 2 2 4 3 9 9 9 11 11 12 13 13 12 15 17 17 18 19 20 21 24 24 19 18 19 21 22 23 24 26 30 32 33 32 27 27
22 20 14 12 13 5 2 1 2 7 6 7 7 8 9 11 12 10 13 14 14 15 15 15 14 17 17 18 21 16 17 20 21 21 19 19 19 20 18 15 23 29 28
17 18 12 11 8 6 2 1 4 5 6 6 7 9 10 10 11 13 13 14 15 13 14 11 12 12 14 15 18 18 17 15 16 20 21 22 26 28 32 30 29 26 23
16 13 12 11 11 6 5 1 4 4 5 5 7 7 8 8 10 12 15 16 13 13 13 11 13 15 12 15 18 17 16 15 20 19 19 22 27 27 28 28 26 24 26
14 12 10 11 12 7 4 3 3 4 5 5 6 7 7 8 8 10 11 13 13 15 14 14 16 16 17 14 20 27 28 28 26 26 29 30 32 33 31 30 26 27 28
12 13 10 8 10 6 5 3 4 3 4 4 5 5 7 7 8 9 11 9 10 13 12 12 12 14 13 17 24 26 27 27 28 30 29 22 22 23 24 24 25 26 25
12 9 8 9 7 8 4 4 2 1 3 4 5 5 6 6 7 9 10 10 11 13 9 8 9 9 14 25 27 25 24 27 26 26 20 21 21 23 24 23 24 24 25
Wind_Direction
148 125 138 147 203 198 199 200 177 169 174 186 183 194 202 217 225 222 236 197 205 212 217 219 223 227 251 271 274 310 312 308 294 341 72 295 309 290 235 248 214 184 191
138 156 152 142 198 216 223 199 187 182 188 188 191 190 199 220 210 199 191 212 214 215 222 219 228 234 242 258 267 281 321 300 313 248 108 48 330 286 277 338 283 189 189
163 172 186 192 207 207 195 183 186 186 190 194 186 196 189 148 161 175 199 243 226 234 231 225 232 240 240 249 253 240 245 257 298 171 161 125 63 355 10 294 317 309 185
168 179 187 186 185 155 170 182 184 188 195 195 193 193 195 186 212 228 247 227 237 242 242 236 232 234 240 240 259 257 241 251 276 327 356 73 68 38 63 224 264 303 272
171 169 152 117 136 153 163 172 183 190 198 191 188 210 202 214 221 234 234 233 244 246 238 224 231 238 239 239 247 254 253 260 277 5 273 123 179 221 202 259 245 265 271
144 107 128 185 169 163 164 161 171 178 191 192 189 205 209 212 223 229 229 234 233 239 234 228 225 228 234 236 240 240 251 262 280 271 278 152 159 216 180 180 285 271 289
142 162 157 170 199 163 157 165 164 174 194 197 201 202 211 218 229 226 230 231 225 225 226 226 223 225 232 231 237 237 250 251 262 279 294 312 171 132 195 150 171 244 288
152 151 161 153 169 157 170 168 163 175 186 198 203 210 214 222 240 240 239 226 223 215 214 213 219 218 223 220 222 228 234 243 244 241 252 276 271 206 215 225 152 233 229
160 155 161 156 159 155 169 154 156 166 194 196 192 205 222 229 220 199 224 203 220 219 213 209 209 217 221 227 229 226 236 239 252 250 238 244 260 266 224 239 213 200 312
165 159 159 160 160 160 152 132 141 157 170 154 185 191 205 237 253 272 254 231 246 193 206 214 212 221 221 226 232 237 242 240 242 248 250 246 241 274 302 260 239 256 258
165 149 156 153 183 194 149 132 142 103 106 88 93 101 146 23 284 257 276 278 279 261 241 229 228 233 230 229 231 238 246 245 244 246 261 270 263 263 275 291 298 294 247
161 151 165 164 156 87 92 92 96 92 92 99 97 104 75 104 92 339 293 269 278 282 264 253 249 244 242 243 240 236 243 251 248 253 254 259 258 256 257 266 282 289 285
149 160 150 103 87 89 102 112 109 109 116 109 97 69 69 64 49 42 352 358 341 330 291 272 265 265 260 254 249 250 247 248 254 254 253 253 255 260 261 252 265 280 291
149 166 126 107 112 118 115 111 101 88 75 67 68 60 35 37 38 35 6 346 347 340 329 321 292 281 273 263 255 250 249 251 256 258 259 261 259 258 256 254 257 267 272
159 134 109 127 123 124 129 128 119 102 86 68 49 40 19 22 8 2 352 333 329 317 318 316 312 311 306 279 270 265 264 261 260 261 260 261 261 260 263 259 254 255 260
161 121 130 127 139 140 144 133 117 101 77 53 32 12 3 359 349 346 340 329 322 317 313 307 305 304 296 282 326 313 289 283 281 281 279 268 265 264 261 260 259 256 250
147 150 143 158 152 165 136 126 99 81 58 31 2 344 347 342 341 335 327 321 316 310 305 303 301 302 302 293 303 309 300 288 286 285 287 277 274 271 269 267 265 263 260
148 148 161 166 150 153 139 110 109 79 44 5 340 342 340 333 332 331 329 330 328 321 310 303 298 295 293 293 293 294 295 292 282 278 277 278 281 281 278 277 268 267 265
150 153 167 141 152 118 109 102 47 0 355 342 18 4 359 353 343 337 339 333 333 331 324 316 312 315 319 315 313 308 296 288 284 283 282 279 277 276 274 278 273 269 266
145 153 122 117 107 95 104 72 1 9 4 29 6 359 340 327 323 321 318 323 312 310 318 316 314 311 312 309 302 294 301 287 285 285 285 281 279 279 275 266 263 265 267
127 117 128 132 113 129 92 123 47 60 28 358 342 334 332 329 313 321 326 327 317 308 299 295 305 312 308 310 320 313 325 297 284 285 291 291 293 301 320 307 281 270 272
134 131 150 140 144 137 129 84 73 40 10 347 335 326 319 325 323 322 321 320 307 305 317 323 309 308 321 326 324 322 324 321 307 286 280 287 292 294 301 298 289 290 285
147 144 159 141 137 119 68 57 58 19 355 345 343 328 328 329 337 336 326 321 333 339 348 334 335 332 333 328 328 342 351 336 324 310 308 299 293 298 290 293 294 285 266
147 157 146 158 121 110 115 75 41 19 358 333 335 332 331 338 337 339 337 339 336 337 333 329 328 327 326 335 334 332 327 324 321 311 305 303 297 292 291 286 283 277 266
149 140 152 150 123 133 115 78 53 4 351 339 318 327 337 359 350 352 336 323 343 332 318 315 328 330 346 346 337 330 322 314 307 305 303 296 294 287 281 276 271 269 267
125 127 128 129 135 141 139 147 151 24 347 328 353 340 337 358 349 348 353 352 339 346 341 351 349 1 345 333 332 332 322 315 311 297 286 288 288 287 288 285 283 279 270